CZ-4B DEB, 43430

Orbit data source: Space-Track

CZ-4B DEB, 43430 is space debris in LEO originally from a launch on Thu, 15 Jun 2017 UTC launched from the Jiuquan Satellite Launch Center, China (JSC). Debris objects in space refer to the collection of defunct objects orbiting the Earth. Examples of debris include non-operational satellites, rocket bodies, and fragments generated from explosions, collisions, or faulty payload assembly.

Loading next visibility...
Identifier
43430, 2017-034F
Orbit
LEO
Country
Flag of CNCN / PRC
Related business
Manufacturer
SAST
Mission
Spacecraft
Bus & Motor
Unknown
Mass
Unknown
Launch date (UTC)
2017-06-15 (8 years ago)
Launch vehicle
Unknown
Launch site
Jiuquan Satellite Launch Center, China (JSC)
Object type
Payload
Rocket body
Debris
Shape & HBR
Unknown shape, 0.1 m
Radar Cross Section
Small (<0.1 m²)

Expand to show TLE details & history
Last TLE update: 15 hours ago

TLE from 15 hours ago
0 CZ-4B DEB
1 43430U 17034F   25291.13793787  .00018642  00000-0  16135-2 0  9992
2 43430  42.9937 312.0891 0132402 146.0753 214.8639 14.90297916440191
Epoch: 2025-10-18T03:18Z
TLE epoch observation values (Epoch: 2025-10-18T03:18:37.831Z)
Latitude
Longitude
-124.44179°
Altitude
672.944 km
Speed
7.481 km/s
True Right ascension
20h 48m 21s
True Declination
0° 00' 00"
Sunlit
Object was in daylight at epoch
Visualization orbit readout
Latitude
Unknown
Longitude
Unknown
Altitude
Unknown
Speed
Unknown
Apparent Right ascension
Unknown
Apparent Declination
Unknown
Sunlit
N/A
Visualization observer readout
Local Sidereal Time
12:52:25
Azimuth
Unknown
Elevation
Unknown
Doppler factor
Unknown
Orbital elements
Apogee altitude
691.299 km
Perigee altitude
506.543 km
Semi-major axis
6,977.058 km
Eccentricity
0.01324
Inclination
42.9937°
RAAN
312.0891°
Arg. of periapsis
146.0753°
True anomaly
214.00827°
Mean anomaly
214.8639°
Eccentric anomaly
214.43493°
Mean motion
3.72421 °/min
Orbital period
96.66 mins
BSTAR
0.0016135
Loading maneuver chart data...
Computing Atmospheric mass density...
Loading historical data...
Loading historical data...
Loading historical data...
Loading historical data...
Loading historical data...
Loading historical data...
Loading historical data...

Documentation

Showing up to 5 results
|